Location: Bosdarros
(43.2167°N, 0.3667°W)
Time: 01:55:17
(UTC+00:00)

IRIDIUM 114 - Pass Details

Date: 22 April 2021
Orbit: 776 x 779 km, 86.4° (Epoch: 15 May)

Event Time Altitude Azimuth Distance (km) Brightness Sun altitude
Exits shadow 20:12:32 - 175° (S) 2,783 6.8 -14.0°
Reaches altitude 10° 20:13:42 10° 174° (S) 2,324 6.4 -14.1°
Maximum altitude 20:18:53 73° 90° (E) 815 4.3 -14.9°
Drops below altitude 10° 20:24:06 10° 7° (N) 2,339 7.2 -15.7°
Sets 20:26:28 0° 5° (N) 3,271 8.0 -16.1°
